Zapata, TX

6:55 AM CST on February 24, 2017 (GMT -0600)
Zapata

Weather History for KAPY - August, 2013

Change the Weather History Date:

Tuesday, August 13, 2013

  Actual Average (KLRD) Record (KLRD)
Temperature  
Mean Temperature 90 °F -  
Max Temperature 102 °F 96 °F 110 °F (1999)
Min Temperature 78 °F 75 °F 60 °F (1918)
Cooling Degree Days 25    
Growing Degree Days 40 (Base 50)    
Moisture  
Dew Point 65 °F    
Average Humidity 49    
Maximum Humidity 85    
Minimum Humidity 19    
Precipitation  
Precipitation 0.00 in - - ()
Sea Level Pressure  
Sea Level Pressure 29.95 in    
Wind  
Wind Speed 10 mph (SE)    
Max Wind Speed 16 mph    
Max Gust Speed 23 mph    
Visibility 10 miles    
Events      
Averages and records for this station are not official NWS values.
T = Trace of Precipitation, MM = Missing Value Source: NWS Daily Summary

Daily Weather History Graph

Daily Weather History Graph

Search for Another Location

Airport or City:

Trip Planner

Search our weather history database for the weather conditions in past years. The results will help you decide how hot, cold, wet, or windy it might be!

Date:

Astronomy

Aug. 13, 2013 Rise Set
Actual Time 7:07 AM CDT 8:15 PM CDT
Civil Twilight 6:43 AM CDT 8:39 PM CDT
Nautical Twilight 6:14 AM CDT 9:08 PM CDT
Astronomical Twilight 5:44 AM CDT 9:38 PM CDT
Moon 1:20 PM CDT (8/13) No Moon Set
Length of Visible Light 13h 56m
Length of Day
13h 07m
Waxing Crescent, 42% of the Moon is Illuminated
Aug 13
Waxing Crescent
Aug 14
First Quarter
Aug 20
Full
Aug 28
Last Quarter
Sep 5
New

Hourly Weather History & Observations

Time (CDT) Temp. Heat Index Dew Point Humidity Pressure Visibility Wind Dir Wind Speed Gust Speed Precip Events Conditions
12:15 AM 84.7 °F 86.8 °F 65.7 °F 53% 30.00 in 10.0 mi SE 12.7 mph 18.4 mph N/A   Clear
12:35 AM 84.2 °F 86.8 °F 66.7 °F 56% 30.01 in 10.0 mi SE 10.4 mph - N/A   Clear
12:55 AM 83.7 °F 86.5 °F 67.5 °F 58% 30.00 in 10.0 mi SE 11.5 mph 20.7 mph N/A   Clear
1:15 AM 82.9 °F 85.8 °F 68.0 °F 60% 30.01 in 10.0 mi SSE 12.7 mph 17.3 mph N/A   Clear
1:35 AM 82.4 °F 85.4 °F 68.4 °F 62% 30.00 in 10.0 mi SE 8.1 mph - N/A   Clear
1:55 AM 81.7 °F 84.7 °F 68.5 °F 64% 29.99 in 10.0 mi SE 9.2 mph - N/A   Clear
2:15 AM 81.1 °F 84.2 °F 68.9 °F 66% 30.00 in 10.0 mi SE 8.1 mph - N/A   Clear
2:35 AM 80.8 °F 83.9 °F 69.3 °F 68% 29.99 in 10.0 mi SE 9.2 mph - N/A   Clear
2:55 AM 80.6 °F 83.9 °F 69.8 °F 70% 29.99 in 10.0 mi SE 9.2 mph 17.3 mph N/A   Clear
3:15 AM 80.2 °F 83.5 °F 70.2 °F 71% 30.00 in 10.0 mi SE 6.9 mph 16.1 mph N/A   Clear
3:35 AM 79.9 °F - 70.7 °F 73% 29.99 in 10.0 mi SE 9.2 mph - N/A   Clear
3:55 AM 79.7 °F - 71.2 °F 75% 29.99 in 10.0 mi SE 6.9 mph - N/A   Clear
4:15 AM 79.5 °F - 71.6 °F 77% 29.99 in 10.0 mi SE 9.2 mph - N/A   Scattered Clouds
4:35 AM 79.3 °F - 72.0 °F 78% 29.98 in 10.0 mi SE 9.2 mph - N/A   Scattered Clouds
4:55 AM 79.3 °F - 72.1 °F 79% 29.99 in 10.0 mi SSE 8.1 mph - N/A   Mostly Cloudy
5:15 AM 79.2 °F - 72.5 °F 80% 29.99 in 10.0 mi SE 6.9 mph - N/A   Mostly Cloudy
5:35 AM 79.0 °F - 72.5 °F 80% 29.98 in 10.0 mi SE 5.8 mph - N/A   Scattered Clouds
5:55 AM 78.8 °F - 72.5 °F 81% 29.99 in 10.0 mi SSE 3.5 mph - N/A   Scattered Clouds
6:15 AM 78.8 °F - 72.9 °F 82% 29.99 in 10.0 mi SSE 5.8 mph - N/A   Scattered Clouds
6:35 AM 78.4 °F - 73.0 °F 83% 29.99 in 10.0 mi SE 4.6 mph - N/A   Scattered Clouds
6:55 AM 78.4 °F - 73.4 °F 84% 29.99 in 10.0 mi SE 5.8 mph - N/A   Mostly Cloudy
7:15 AM 78.4 °F - 73.4 °F 84% 29.99 in 10.0 mi SE 4.6 mph - N/A   Overcast
7:35 AM 78.4 °F - 73.6 °F 85% 29.99 in 7.0 mi SE 6.9 mph - N/A   Mostly Cloudy
7:55 AM 79.5 °F - 73.4 °F 81% 29.99 in 7.0 mi SE 8.1 mph - N/A   Overcast
8:15 AM 80.2 °F 84.6 °F 73.2 °F 79% 30.00 in 10.0 mi SE 9.2 mph - N/A   Overcast
8:35 AM 80.6 °F 85.0 °F 72.9 °F 77% 30.00 in 10.0 mi SSE 8.1 mph 16.1 mph N/A   Overcast
8:55 AM 82.9 °F 88.5 °F 72.5 °F 71% 30.00 in 10.0 mi SE 13.8 mph 18.4 mph N/A   Overcast
9:15 AM 84.7 °F 90.4 °F 71.6 °F 65% 30.01 in 10.0 mi SSE 11.5 mph 20.7 mph N/A   Overcast
9:35 AM 85.5 °F 90.1 °F 70.2 °F 60% 30.01 in 10.0 mi SSE 12.7 mph 18.4 mph N/A   Mostly Cloudy
9:55 AM 86.7 °F 90.6 °F 68.7 °F 55% 30.01 in 10.0 mi SSE 15.0 mph 19.6 mph N/A   Scattered Clouds
10:15 AM 88.2 °F 91.3 °F 67.1 °F 50% 30.01 in 10.0 mi SSE 16.1 mph 20.7 mph N/A   Scattered Clouds
10:35 AM 88.3 °F 91.2 °F 66.9 °F 49% 30.02 in 10.0 mi SSE 16.1 mph 20.7 mph N/A   Clear
10:55 AM 90.1 °F 92.7 °F 66.2 °F 45% 30.01 in 10.0 mi SSE 15.0 mph 18.4 mph N/A   Clear
11:15 AM 90.7 °F 92.8 °F 65.3 °F 43% 30.01 in 10.0 mi SSE 13.8 mph 18.4 mph N/A   Clear
11:35 AM 91.9 °F 94.1 °F 65.5 °F 41% 30.01 in 10.0 mi SSE 9.2 mph 18.4 mph N/A   Scattered Clouds
11:55 AM 93.2 °F 94.9 °F 64.2 °F 38% 30.00 in 10.0 mi South 11.5 mph 16.1 mph N/A   Scattered Clouds
12:15 PM 94.6 °F 96.4 °F 63.7 °F 36% 29.99 in 10.0 mi South 9.2 mph 18.4 mph N/A   Clear
12:35 PM 95.0 °F 96.0 °F 62.8 °F 34% 29.99 in 10.0 mi SE 11.5 mph - N/A   Scattered Clouds
12:55 PM 95.9 °F 96.6 °F 62.1 °F 32% 29.98 in 10.0 mi SSE 13.8 mph 17.3 mph N/A   Scattered Clouds
1:15 PM 97.0 °F 96.9 °F 59.9 °F 29% 29.97 in 10.0 mi SE 10.4 mph 18.4 mph N/A   Scattered Clouds
1:35 PM 97.9 °F 97.8 °F 59.7 °F 28% 29.96 in 10.0 mi SSE 4.6 mph 20.7 mph N/A   Scattered Clouds
1:55 PM 99.3 °F 100.1 °F 60.8 °F 28% 29.95 in 10.0 mi ESE 10.4 mph 19.6 mph N/A   Clear
2:15 PM 99.9 °F 100.4 °F 60.4 °F 27% 29.94 in 10.0 mi South 6.9 mph 18.4 mph N/A   Scattered Clouds
2:35 PM 99.7 °F 100.1 °F 60.4 °F 27% 29.93 in 10.0 mi SSE 12.7 mph 18.4 mph N/A   Scattered Clouds
2:55 PM 100.2 °F 100.5 °F 59.4 °F 26% 29.92 in 10.0 mi SSE 9.2 mph 20.7 mph N/A   Clear
3:15 PM 101.1 °F 100.8 °F 58.5 °F 24% 29.91 in 10.0 mi SE 9.2 mph 18.4 mph N/A   Clear
3:35 PM 101.8 °F 101.4 °F 58.1 °F 23% 29.90 in 10.0 mi SE 5.8 mph - N/A   Scattered Clouds
3:55 PM 102.0 °F 101.6 °F 57.4 °F 23% 29.89 in 10.0 mi SSE 11.5 mph 17.3 mph N/A   Scattered Clouds
4:15 PM 101.5 °F 100.3 °F 55.9 °F 22% 29.88 in 10.0 mi SE 9.2 mph 18.4 mph N/A   Scattered Clouds
4:35 PM 102.9 °F 101.9 °F 55.6 °F 21% 29.87 in 10.0 mi SSE 12.7 mph 21.9 mph N/A   Scattered Clouds
4:55 PM 102.4 °F - 52.7 °F 19% 29.86 in 10.0 mi South 11.5 mph 18.4 mph N/A   Scattered Clouds
5:15 PM 102.4 °F 100.6 °F 54.3 °F 20% 29.86 in 10.0 mi SE 13.8 mph 21.9 mph N/A   Scattered Clouds
5:35 PM 102.2 °F 100.4 °F 54.1 °F 20% 29.85 in 10.0 mi SE 12.7 mph 18.4 mph N/A   Scattered Clouds
5:55 PM 101.7 °F 99.7 °F 53.4 °F 20% 29.85 in 10.0 mi SSE 12.7 mph 18.4 mph N/A   Scattered Clouds
6:55 PM 100.4 °F 98.8 °F 54.9 °F 22% 29.84 in 10.0 mi SSE 9.2 mph 18.4 mph N/A   Clear
7:15 PM 99.9 °F 98.1 °F 54.9 °F 22% 29.84 in 10.0 mi SSE 9.2 mph - N/A   Clear
7:35 PM 98.6 °F 97.2 °F 56.3 °F 24% 29.84 in 10.0 mi SSE 13.8 mph 19.6 mph N/A   Clear
7:55 PM 97.3 °F 96.2 °F 57.2 °F 26% 29.85 in 10.0 mi SE 12.7 mph 18.4 mph N/A   Clear
8:35 PM 95.5 °F 94.4 °F 57.6 °F 28% 29.86 in 10.0 mi SE 9.2 mph 16.1 mph N/A   Clear
8:55 PM 95.0 °F 94.0 °F 58.3 °F 29% 29.87 in 10.0 mi ESE 9.2 mph - N/A   Clear
9:15 PM 94.1 °F 93.5 °F 59.0 °F 31% 29.87 in 10.0 mi ESE 10.4 mph - N/A   Clear
9:35 PM 93.2 °F 92.9 °F 60.1 °F 33% 29.89 in 10.0 mi SE 11.5 mph 17.3 mph N/A   Clear
9:55 PM 92.3 °F 92.7 °F 62.1 °F 36% 29.90 in 10.0 mi SE 15.0 mph 21.9 mph N/A   Clear
10:15 PM 91.6 °F 92.7 °F 63.3 °F 39% 29.91 in 10.0 mi SE 13.8 mph 20.7 mph N/A   Clear
10:35 PM 90.5 °F 91.8 °F 64.0 °F 41% 29.92 in 10.0 mi SE 9.2 mph 17.3 mph N/A   Clear
10:55 PM 89.6 °F 91.1 °F 64.2 °F 43% 29.93 in 10.0 mi SE 9.2 mph - N/A   Clear
11:15 PM 88.7 °F 90.1 °F 64.0 °F 44% 29.94 in 10.0 mi SE 9.2 mph - N/A   Clear
11:35 PM 88.0 °F 88.7 °F 62.6 °F 43% 29.94 in 10.0 mi SE 15.0 mph 23.0 mph N/A   Clear
11:55 PM 87.1 °F 87.5 °F 62.1 °F 43% 29.94 in 10.0 mi SSE 12.7 mph 18.4 mph N/A   Clear